STARLINK-1672, 46537

Orbit data source: Space-Track

STARLINK-1672, 46537 is a payload satellite owned by SpaceX/Seattle (US) in LEO that was launched on Tue, 06 Oct 2020 UTC via an FALCON 9 launch vehicle from the Air Force Eastern Test Range (AFETR). Payload-class satellites include a variety of spacecraft equipped with specific instruments for various scientific and technological missions. These include communications satellites like Starlink; space stations such as the ISS; scientific satellites like the Hubble; Earth observation satellites from companies like Planet Labs, Umbra, and HawkEye 360; GPS; miniature CubeSats for education and research; and military/defense satellites.

Loading next visibility...
Identifier
46537, 2020-070F
Orbit
LEO
Last TLE update
17 hours ago
Origin
Manufacturer
SpaceX/Seattle
Mission
Operational Commercial Communications
Bus & Motor
STARLINK, Unknown motor
Mass
260 kg wet, ~248 kg dry
Launch date (UTC)
2020-10-06 (5 years ago)
Launch vehicle
FALCON 9
Launch site
Air Force Eastern Test Range (AFETR)
Object type
Payload
Rocket body
Debris
Shape & HBR
Box + 1 Pan, 8.86 m
Radar Cross Section
13.562 m², Large (>1 m²)

Expand to show TLE details & history

TLE from 17 hours ago
0 STARLINK-1672
1 46537U 20070F   25186.28350420  .00000954  00000-0  82936-4 0  9990
2 46537  53.0544 207.2688 0001083  80.6125 279.4987 15.06402632262213
Epoch: 2025-07-05T06:48Z
TLE epoch observation values (Epoch: 2025-07-05T06:48:14.762Z)
Latitude
0.00001°
Longitude
-178.31647°
Altitude
547.959 km
Speed
7.589 km/s
True Right ascension
13h 49m 04s
True Declination
0° 00' 00"
Sunlit
Object was in daylight at epoch
Visualization orbit readout
Latitude
-11.02901°
Longitude
170.03533°
Altitude
550.246 km
Speed
7.587 km/s
Apparent Right ascension
14h 54m 05s
Apparent Declination
-67° 00' 17"
Sunlit
Object is in daylight
Visualization observer readout
Local Sidereal Time
12:12:00
Azimuth
164.193° S
Elevation
-21.279°
Doppler factor
1
Orbital elements
Apogee altitude
548.224 km
Perigee altitude
546.724 km
Semi-major axis
6,925.611 km
Eccentricity
0.00011
Inclination
53.0544°
RAAN
207.2688°
Arg. of periapsis
80.6125°
True anomaly
Unknown
Mean anomaly
279.4987°
Eccentric anomaly
Unknown
Mean motion
3.76579 °/min
Orbital period
95.6 mins
BSTAR
0.000082936
Loading maneuver chart data...
Loading SW <> Apogee altitude chart data...
Loading historical data...
Loading historical data...
Loading historical data...
Loading historical data...
Loading historical data...
Loading historical data...
Loading historical data...

STARLINK-1672 Visibility forecast

Observer location: undefined°, undefined°

Span
Click to sort rows by Start time (UTC) header in descending order
Start Az.
Max El. time (UTC)
Max El. Az.
Max El.
End time (UTC)
End Az.
7 mins2025-07-06 03:39:31.233Z210.166° SW2025-07-06 03:43:31.233Z123.122° SE37.577°2025-07-06 03:46:31.233Z62.352° ENE
6 mins2025-07-06 05:20:31.233Z281.776° WNW2025-07-06 05:22:31.233Z319.551° NNW24.965°2025-07-06 05:26:31.233Z33.333° NE
6 mins2025-07-06 10:22:31.233Z327.154° NNW2025-07-06 10:24:31.233Z19.458° NNE38.042°2025-07-06 10:28:31.233Z112.043° ESE
4 mins2025-07-06 12:02:31.233Z261.699° W2025-07-06 12:04:31.233Z220.68° SW19.968°2025-07-06 12:06:31.233Z187.412° SSW
|